DW0226 Weather Reports


Display with metric or nautical units.
time (UTC)temp
F
wind
direction
speed
MPH
gust
MPH
rain 1hr
in
rain 24hr
in
rain mn
in
humidity
%
barometer
mb
20260508174025 67 261 5.0 11.0 0.00 0.02 0.00 42 1013.3
20260508173033 67 140 3.0 7.0 0.00 0.02 0.00 43 1013.4
20260508172023 66 180 3.0 7.0 0.00 0.02 0.00 45 1013.5
20260508171030 65 234 5.0 12.0 0.00 0.02 0.00 43 1013.5
20260508170021 65 105 3.0 10.0 0.00 0.02 0.00 43 1013.8
20260508165030 65 155 5.0 10.0 0.00 0.02 0.00 46 1014.0
20260508164057 64 167 4.0 7.0 0.00 0.02 0.00 47 1014.0
20260508163048 64 238 4.0 9.0 0.00 0.02 0.00 48 1013.9
20260508162017 64 233 2.0 9.0 0.00 0.02 0.00 47 1014.1
20260508161027 64 281 3.0 10.0 0.00 0.02 0.00 41 1014.4
20260508160018 63 268 5.0 10.0 0.00 0.02 0.00 40 1014.5
20260508155031 63 250 3.0 9.0 0.00 0.02 0.00 43 1014.6
20260508154020 62 254 4.0 10.0 0.00 0.02 0.00 43 1014.6
20260508153027 62 120 3.0 8.0 0.00 0.02 0.00 53 1014.6
20260508152032 61 250 4.0 9.0 0.00 0.02 0.00 53 1014.8
20260508151042 61 191 4.0 9.0 0.00 0.02 0.00 57 1014.9
20260508150030 60 266 5.0 10.0 0.00 0.02 0.00 61 1015.0
20260508145059 60 250 6.0 11.0 0.00 0.02 0.00 65 1015.1
20260508144025 60 287 5.0 9.0 0.00 0.02 0.00 63 1015.1
20260508143020 59 221 5.0 9.0 0.00 0.02 0.00 64 1015.2
20260508142026 60 242 5.0 7.0 0.00 0.02 0.00 64 1015.2
20260508141055 59 214 2.0 7.0 0.00 0.02 0.00 57 1015.2
20260508140020 59 198 3.0 7.0 0.00 0.02 0.00 57 1015.1
20260508135047 58 248 4.0 7.0 0.00 0.02 0.00 60 1015.1
20260508134020 58 281 4.0 7.0 0.00 0.02 0.00 63 1015.2
20260508133027 58 260 3.0 6.0 0.00 0.02 0.00 66 1015.2
20260508132035 58 219 0.0 4.0 0.00 0.02 0.00 64 1015.0
20260508131022 58 273 3.0 4.0 0.00 0.02 0.00 67 1015.1
20260508130034 57 284 1.0 3.0 0.00 0.02 0.00 69 1015.2
20260508125022 56 167 2.0 4.0 0.00 0.02 0.00 69 1015.1
20260508124029 55 182 2.0 3.0 0.00 0.02 0.00 75 1015.0
20260508123057 53 287 2.0 3.0 0.00 0.02 0.00 80 1015.0
20260508122029 52 277 0.0 1.0 0.00 0.02 0.00 85 1014.8
20260508121036 51 277 0.0 1.0 0.00 0.02 0.00 91 1014.6
20260508120025 50 277 0.0 1.0 0.00 0.02 0.00 94 1014.6
20260508115032 50 277 0.0 0.0 0.00 0.02 0.00 96 1014.5
20260508114026 48 277 0.0 0.0 0.00 0.02 0.00 96 1014.5
20260508113016 47 277 0.0 0.0 0.00 0.02 0.00 96 1014.4
20260508112027 46 277 0.0 0.0 0.00 0.02 0.02 95 1014.3
20260508111018 44 277 0.0 0.0 0.00 0.02 0.02 95 1014.1
20260508110027 43 277 0.0 0.0 0.00 0.02 0.02 94 1013.8
20260508105015 43 277 0.0 0.0 0.00 0.02 0.02 94 1013.6
20260508104025 43 277 0.0 0.0 0.00 0.02 0.02 94 1013.5
20260508103038 43 277 0.0 0.0 0.00 0.02 0.02 93 1013.3
20260508102022 43 277 0.0 0.0 0.00 0.02 0.02 93 1013.2
20260508101029 43 277 0.0 0.0 0.00 0.02 0.02 93 1013.1
20260508100038 44 277 0.0 0.0 0.00 0.02 0.02 94 1013.1
20260508095029 44 277 0.0 0.0 0.00 0.02 0.02 94 1013.1
20260508094035 44 277 0.0 0.0 0.00 0.02 0.02 93 1013.0
20260508093023 44 277 0.0 0.0 0.00 0.02 0.02 93 1012.9
20260508092029 45 277 0.0 0.0 0.00 0.02 0.02 93 1012.8
20260508091021 45 277 0.0 0.0 0.00 0.02 0.02 94 1012.7
20260508090030 46 277 0.0 0.0 0.00 0.02 0.02 94 1012.6
20260508085021 46 277 0.0 0.0 0.00 0.02 0.02 94 1012.3
20260508084028 47 277 0.0 0.0 0.00 0.02 0.02 93 1012.2
20260508083023 48 277 0.0 0.0 0.00 0.02 0.02 94 1012.1
20260508082029 48 277 0.0 0.0 0.00 0.02 0.02 94 1011.9
20260508081039 48 277 0.0 0.0 0.00 0.02 0.02 94 1011.9
20260508080028 48 277 0.0 0.0 0.00 0.02 0.02 94 1011.8
20260508075022 48 277 0.0 0.0 0.00 0.02 0.02 93 1011.7
20260508074031 48 307 0.0 4.0 0.00 0.02 0.02 93 1011.8
20260508073021 49 263 0.0 0.0 0.00 0.02 0.02 94 1011.6
20260508072028 49 263 0.0 0.0 0.00 0.02 0.02 93 1011.6
20260508071024 50 263 0.0 0.0 0.00 0.02 0.02 93 1011.4
20260508070035 50 263 0.0 2.0 0.00 0.02 0.02 93 1011.2
20260508065044 50 263 3.0 4.0 0.00 0.02 0.02 93 1011.3
20260508064029 50 259 2.0 4.0 0.00 0.02 0.02 93 1011.2
20260508063023 50 261 1.0 5.0 0.00 0.02 0.02 93 1010.9
20260508062030 50 265 3.0 5.0 0.00 0.02 0.02 93 1010.8
20260508061017 51 309 3.0 5.0 0.00 0.02 0.02 93 1010.7
20260508060028 51 262 2.0 5.0 0.00 0.02 0.02 93 1010.6
20260508055018 51 246 3.0 7.0 0.00 0.02 0.02 94 1010.7
20260508054028 51 247 3.0 6.0 0.00 0.02 0.02 94 1010.7
20260508053019 50 261 4.0 9.0 0.00 0.02 0.02 95 1010.7
20260508052029 50 254 0.0 2.0 0.00 0.02 0.02 95 1010.7
20260508051019 50 263 0.0 0.0 0.00 0.02 0.02 95 1010.6
20260508050051 49 232 0.0 2.0 0.00 0.02 0.02 96 1010.7
20260508045100 46 245 0.0 1.0 0.00 0.02 0.02 94 1010.7
20260508044024 46 264 0.0 0.0 0.00 0.02 0.02 94 1010.7
20260508043057 46 264 0.0 0.0 0.00 0.02 0.02 93 1010.7
20260508042022 47 264 0.0 0.0 0.00 0.02 0.02 93 1010.5
20260508041029 47 264 0.0 0.0 0.00 0.02 0.02 94 1010.5
20260508040037 47 264 0.0 0.0 0.00 0.02 0.02 93 1010.3
20260508035027 47 264 0.0 0.0 0.00 0.02 0.02 93 1010.3
20260508034015 47 264 0.0 0.0 0.00 0.02 0.02 93 1010.2
20260508033027 48 264 0.0 0.0 0.00 0.02 0.02 93 1010.1
20260508032019 48 264 0.0 0.0 0.00 0.02 0.02 93 1010.2
20260508031028 48 264 0.0 0.0 0.00 0.02 0.02 93 1010.2
20260508030037 48 264 0.0 0.0 0.00 0.02 0.02 92 1010.2
20260508025023 48 264 0.0 0.0 0.00 0.02 0.02 92 1010.3
20260508024035 47 264 0.0 0.0 0.00 0.02 0.02 93 1010.3
20260508023026 46 264 0.0 0.0 0.00 0.02 0.02 92 1010.3
20260508022015 45 264 0.0 0.0 0.00 0.02 0.02 90 1010.3
20260508021025 46 264 0.0 0.0 0.00 0.02 0.02 90 1010.2
20260508020042 46 264 0.0 0.0 0.00 0.02 0.02 90 1010.1
20260508015028 46 264 0.0 0.0 0.00 0.02 0.02 89 1010.1
20260508014038 46 264 0.0 0.0 0.00 0.02 0.02 88 1010.0
20260508013024 46 264 0.0 0.0 0.00 0.02 0.02 88 1009.9
20260508012035 47 264 0.0 0.0 0.00 0.02 0.02 86 1009.9
20260508011025 48 264 0.0 0.0 0.00 0.02 0.02 85 1009.5
20260508010033 48 264 0.0 0.0 0.00 0.02 0.02 84 1009.6
20260508005020 49 264 0.0 0.0 0.00 0.02 0.02 82 1009.5
20260508004032 50 264 0.0 0.0 0.00 0.02 0.02 81 1009.3
20260508003022 51 264 0.0 0.0 0.00 0.02 0.02 80 1009.2
20260508002051 52 264 0.0 0.0 0.00 0.02 0.02 79 1009.1
20260508001018 53 264 0.0 0.0 0.00 0.02 0.02 78 1009.0
20260508000030 54 264 0.0 0.0 0.00 0.02 0.02 78 1009.0
20260507235018 55 166 0.0 0.0 0.00 0.02 0.02 77 1008.8
20260507234028 55 166 0.0 0.0 0.00 0.02 0.02 74 1008.5
20260507233036 56 166 0.0 0.0 0.00 0.02 0.02 71 1008.4
20260507232026 56 166 0.0 2.0 0.00 0.02 0.02 70 1008.5
20260507231033 56 166 0.0 2.0 0.00 0.02 0.02 70 1008.4
20260507230018 56 166 1.0 3.0 0.00 0.02 0.02 68 1008.2
20260507225028 56 224 1.0 5.0 0.00 0.02 0.02 70 1008.2
20260507224020 57 217 4.0 7.0 0.00 0.02 0.02 67 1008.4
20260507223028 57 215 0.0 3.0 0.00 0.02 0.02 65 1008.5
20260507222032 56 226 3.0 4.0 0.00 0.02 0.02 66 1008.3
20260507221040 56 240 2.0 6.0 0.00 0.02 0.02 66 1008.1
20260507220026 56 171 1.0 5.0 0.00 0.02 0.02 68 1008.3
20260507215019 57 171 1.0 5.0 0.00 0.02 0.02 69 1008.3
20260507214042 56 207 3.0 5.0 0.00 0.02 0.02 68 1008.6
20260507213030 56 173 1.0 3.0 0.01 0.02 0.02 69 1008.6
20260507212037 55 173 2.0 5.0 0.01 0.02 0.02 70 1008.6
20260507211028 55 229 0.0 4.0 0.01 0.02 0.02 75 1008.7
20260507210019 55 196 1.0 4.0 0.01 0.02 0.02 77 1008.4
20260507205030 54 140 2.0 3.0 0.01 0.02 0.02 74 1008.7
20260507204022 54 140 0.0 1.0 0.01 0.02 0.02 78 1008.5
20260507203032 55 60 0.0 0.0 0.00 0.01 0.01 81 1008.2
20260507202022 54 60 0.0 1.0 0.00 0.01 0.01 76 1008.6
20260507201025 54 213 0.0 3.0 0.00 0.01 0.01 74 1009.2
20260507200038 54 213 1.0 3.0 0.00 0.01 0.01 74 1009.0
20260507195024 55 109 1.0 3.0 0.00 0.01 0.01 78 1008.1
20260507194031 55 90 1.0 2.0 0.00 0.01 0.01 71 1008.5
20260507193044 55 132 0.0 2.0 0.00 0.01 0.01 69 1008.8
20260507192050 55 115 1.0 2.0 0.00 0.01 0.01 73 1008.8
20260507191020 55 125 0.0 1.0 0.00 0.01 0.01 72 1009.2
20260507190031 56 84 0.0 0.0 0.00 0.01 0.01 76 1009.0
20260507185021 56 84 0.0 2.0 0.00 0.01 0.01 68 1009.1
20260507184031 56 70 1.0 3.0 0.00 0.01 0.01 68 1008.9
20260507183047 56 86 0.0 5.0 0.00 0.01 0.01 62 1009.4
20260507182022 57 63 0.0 2.0 0.00 0.01 0.01 64 1009.2
20260507181030 56 74 1.0 5.0 0.01 0.01 0.01 67 1009.3
20260507180021 56 90 2.0 5.0 0.01 0.01 0.01 67 1009.5
20260507175031 56 93 4.0 6.0 0.01 0.01 0.01 67 1009.6